Location: Seven Kings
(51.5667°N, 0.1000°E)
Time: 02:25:01
(UTC+00:00)

Cosmos 2074 Rocket - Pass Details

Date: 29 October 2020
Orbit: 966 x 987 km, 82.9° (Epoch: 23 November)

Event Time Altitude Azimuth Distance (km) Brightness Sun altitude
Rises 18:49:43 0° 353° (N) 3,676 7.2 -21.1°
Reaches altitude 10° 18:52:26 10° 1° (N) 2,723 6.4 -21.5°
Enters shadow 18:58:06 40° 66° (ENE) 1,403 4.4 -22.4°
